Location: Aranbee
(34.0885°N, 118.2342°W)
Time: 11:41:44
(UTC+00:00)

S-56A Canister/Altair - Pass Details

Date: 31 July 2021
Orbit: 632 x 2500 km, 38.9° (Epoch: 18 September)

Event Time Altitude Azimuth Distance (km) Brightness Sun altitude
Rises 06:18:53 0° 291° (WNW) 5,998 12.7 -32.5°
Reaches altitude 10° 06:23:42 10° 282° (WNW) 4,794 12.0 -33.0°
Maximum altitude 06:34:10 30° 229° (SW) 2,867 10.2 -33.9°
Enters shadow 06:34:43 30° 224° (SW) 2,838 10.1 -34.0°
